Location: Buisson
(44.2787°N, 4.9969°E)
Time: 02:28:52
(UTC+00:00)

ATLAS 5 CENTAUR R/B - Pass Details

Date: 18 April 2021
Orbit: 516 x 1141 km, 63.3° (Epoch: 02 May)

Event Time Altitude Azimuth Distance (km) Brightness Sun altitude
Rises 00:54:10 0° 327° (NNW) 3,173 5.6 -32.3°
Reaches altitude 10° 00:56:37 10° 337° (NNW) 2,345 5.0 -32.2°
Maximum altitude 01:01:35 34° 42° (NE) 1,416 3.8 -31.8°
Drops below altitude 10° 01:07:18 10° 106° (ESE) 2,730 4.9 -31.4°
Sets 01:10:21 0° 115° (ESE) 3,769 5.6 -31.1°
